CZ-4B DEB, 43430

Orbit data source: Space-Track

CZ-4B DEB, 43430 is space debris in LEO originally from a launch on Thu, 15 Jun 2017 UTC launched from the Jiuquan Satellite Launch Center, China (JSC). Debris objects in space refer to the collection of defunct objects orbiting the Earth. Examples of debris include non-operational satellites, rocket bodies, and fragments generated from explosions, collisions, or faulty payload assembly.

Loading next visibility...
Identifier
43430, 2017-034F
Orbit
LEO
Country
Flag of CNCN / PRC
Related business
Manufacturer
SAST
Mission
Spacecraft
Bus & Motor
Unknown
Mass
Unknown
Launch date (UTC)
2017-06-15 (9 years ago)
Launch vehicle
Unknown
Launch site
Jiuquan Satellite Launch Center, China (JSC)
Object type
Payload
Rocket body
Debris
Shape & HBR
Unknown shape, 0.1 m
Radar Cross Section
Small (<0.1 m²)

Expand to show TLE details & history
Last TLE update: 8 hours ago

TLE from 8 hours ago
0 CZ-4B DEB
1 43430U 17034F   26120.95955320  .00009409  00000-0  73537-3 0  9998
2 43430  42.9933 348.5719 0125296 256.5949 102.0898 14.95214811469315
Epoch: 2026-04-30T23:01Z
TLE epoch observation values (Epoch: 2026-04-30T23:01:45.396Z)
Latitude
-0.00001°
Longitude
144.23406°
Altitude
600.786 km
Speed
7.551 km/s
True Right ascension
23h 14m 17s
True Declination
0° 00' 00"
Sunlit
Object was in daylight at epoch
Visualization orbit readout
Latitude
Unknown
Longitude
Unknown
Altitude
Unknown
Speed
Unknown
Apparent Right ascension
Unknown
Apparent Declination
Unknown
Sunlit
N/A
Visualization observer readout
Local Sidereal Time
14:08:54
Azimuth
Unknown
Elevation
Unknown
Doppler factor
Unknown
Orbital elements
Apogee altitude
670.853 km
Perigee altitude
496.397 km
Semi-major axis
6,961.762 km
Eccentricity
0.01253
Inclination
42.9933°
RAAN
348.5719°
Arg. of periapsis
256.5949°
True anomaly
103.48901°
Mean anomaly
102.0898°
Eccentric anomaly
102.78988°
Mean motion
3.73649 °/min
Orbital period
96.35 mins
BSTAR
0.00073537
Loading maneuver chart data...
Computing Atmospheric mass density...
Loading historical data...
Loading historical data...
Loading historical data...
Loading historical data...
Loading historical data...
Loading historical data...
Loading historical data...

Documentation

Showing up to 5 results
|